CHINASAT 16 (SJ-13)

Last updated on Sept. 30, 2020, 5:50 a.m. UTC

1 42662U 17018A   20273.73401411 -.00000370  00000-0  00000-0 0  9993
2 42662   0.0319  71.9035 0006787 146.5277 165.2660  1.00273843 12827
UTC
Height (km)
Latitude
Longitude
Inclination
Orbital Period
UTC large
Height (km)
Speed (km/s)
/
Latitude / Longitude
Inclination (degrees)
Orbital Period (minutes)
Azimuth
Elevation
Range (km)
Doppler Factor
iOS Compass Heading
iOS Angle

Next 30 passes for location: Hong Kong

Rise time Rise Azimuth (degrees) Set time Set Azimuth (degrees) Duration Max altitude (degrees)

No matching passes for this satellites